FW9609 Weather Reports


Display with metric or nautical units.
time (UTC)temp
F
wind
direction
speed
MPH
gust
MPH
rain 1hr
in
rain 24hr
in
rain mn
in
humidity
%
barometer
mb
20210625033112 82 179 0.0 0.0 0.00 0.00 0.00 82 1014.0
20210625032545 82 207 0.0 0.0 0.00 0.00 0.00 83 1014.0
20210625032045 82 217 0.0 0.0 0.00 0.00 0.00 82 1013.9
20210625031715 82 191 0.0 0.0 0.00 0.00 0.00 82 1013.9
20210625031045 82 191 0.0 0.0 0.00 0.00 0.00 82 1013.8
20210625030548 82 191 0.0 0.0 0.00 0.00 0.00 82 1013.7
20210625030208 82 191 0.0 0.0 0.00 0.00 0.00 81 1013.7
20210625025548 82 161 0.0 0.0 0.00 0.00 0.00 83 1013.6
20210625025054 82 161 0.0 0.0 0.00 0.00 0.00 83 1013.7
20210625024558 82 161 0.0 0.0 0.00 0.00 0.00 82 1013.6
20210625024046 82 161 0.0 0.0 0.00 0.00 0.00 83 1013.5
20210625023543 82 161 0.0 0.0 0.00 0.00 0.00 82 1013.4
20210625023125 82 161 0.0 0.0 0.00 0.00 0.00 82 1013.4
20210625022543 83 161 0.0 0.0 0.00 0.00 0.00 82 1013.3
20210625022048 83 161 0.0 0.0 0.00 0.00 0.00 81 1013.3
20210625021635 83 161 0.0 0.0 0.00 0.00 0.00 80 1013.2
20210625021050 83 161 0.0 0.0 0.00 0.00 0.00 80 1013.1
20210625020543 83 161 0.0 0.0 0.00 0.00 0.00 79 1013.1
20210625020249 83 161 0.0 0.0 0.00 0.00 0.00 79 1013.1
20210625015542 84 161 0.0 0.0 0.00 0.00 0.00 80 1013.1
20210625015042 84 161 0.0 0.0 0.00 0.00 0.00 79 1013.2
20210625014614 84 161 0.0 0.0 0.00 0.00 0.00 78 1013.1
20210625014042 84 161 0.0 0.0 0.00 0.00 0.00 78 1013.2
20210625013550 85 161 0.0 0.0 0.00 0.00 0.00 78 1013.1
20210625013135 85 161 0.0 0.0 0.00 0.00 0.00 78 1013.1
20210625012545 85 161 0.0 0.0 0.00 0.00 0.00 76 1013.1
20210625012041 85 161 0.0 0.0 0.00 0.00 0.00 77 1013.2
20210625011607 85 161 0.0 0.0 0.00 0.00 0.00 78 1013.2
20210625011041 85 161 0.0 0.0 0.00 0.00 0.00 77 1013.1
20210625010540 86 161 0.0 0.0 0.00 0.00 0.00 76 1013.1
20210625010055 86 161 0.0 0.0 0.00 0.00 0.00 76 1013.0
20210625005609 86 156 0.0 0.0 0.00 0.00 0.00 76 1013.0
20210625005040 86 156 0.0 0.0 0.00 0.00 0.00 75 1012.9
20210625004621 86 156 0.0 0.0 0.00 0.00 0.00 75 1012.9
20210625004044 86 156 0.0 0.0 0.00 0.00 0.00 76 1012.9
20210625003544 86 156 0.0 0.0 0.00 0.00 0.00 76 1012.8
20210625003204 87 162 0.0 0.0 0.00 0.00 0.00 77 1012.8
20210625002546 87 162 0.0 0.0 0.00 0.00 0.00 77 1012.8
20210625002042 87 168 0.0 0.0 0.00 0.00 0.00 76 1012.8
20210625001550 87 164 0.0 0.0 0.00 0.00 0.00 76 1012.8
20210625001039 87 161 0.0 0.0 0.00 0.00 0.00 77 1012.8
20210625000558 87 173 0.0 0.0 0.00 0.00 0.00 77 1012.8
20210625000051 87 279 0.0 0.0 0.00 0.00 0.00 79 1012.8
20210624235540 87 290 0.0 0.0 0.00 0.00 0.00 78 1012.8
20210624235040 87 290 0.0 0.0 0.00 0.00 0.00 77 1012.7
20210624234640 87 148 0.0 0.0 0.00 0.00 0.00 77 1012.6
20210624233602 87 148 0.0 0.0 0.00 0.00 0.00 76 1012.8
20210624233042 88 148 0.0 0.0 0.00 0.00 0.00 76 1012.7
20210624232541 88 148 0.0 0.0 0.00 0.00 0.00 76 1012.7
20210624232037 88 148 0.0 0.0 0.00 0.00 0.00 75 1012.7
20210624231618 89 148 0.0 0.0 0.00 0.00 0.00 74 1012.7
20210624231038 89 148 0.0 0.0 0.00 0.00 0.00 74 1012.6
20210624230606 89 153 0.0 0.0 0.00 0.00 0.00 73 1012.6
20210624230102 90 153 0.0 0.0 0.00 0.00 0.00 73 1012.6
20210624225536 90 139 0.0 0.0 0.00 0.00 0.00 71 1012.5
20210624225042 90 324 1.0 0.0 0.00 0.00 0.00 70 1012.5
20210624224550 90 314 0.0 0.0 0.00 0.00 0.00 71 1012.5
20210624224044 90 317 0.0 0.0 0.00 0.00 0.00 72 1012.5
20210624223551 90 319 0.0 0.0 0.00 0.00 0.00 72 1012.6
20210624223059 90 310 0.0 0.0 0.00 0.00 0.00 72 1012.7
20210624222534 90 160 0.0 0.0 0.00 0.00 0.00 70 1012.6
20210624222035 90 142 1.0 0.0 0.00 0.00 0.00 71 1012.7
20210624221606 90 127 1.0 0.0 0.00 0.00 0.00 72 1012.8
20210624221036 90 262 1.0 0.0 0.00 0.00 0.00 72 1012.8
20210624220533 90 138 0.0 0.0 0.00 0.00 0.00 75 1012.9
20210624220101 90 138 1.0 0.0 0.00 0.00 0.00 74 1012.9
20210624215531 90 180 1.0 0.0 0.00 0.00 0.00 74 1013.0
20210624215035 90 233 0.0 0.0 0.00 0.00 0.00 74 1013.1
20210624214554 90 235 1.0 0.0 0.00 0.00 0.00 72 1013.2
20210624214042 90 170 0.0 0.0 0.00 0.00 0.00 75 1013.2
20210624213529 89 198 0.0 0.0 0.00 0.00 0.00 76 1013.2
20210624213053 89 208 0.0 0.0 0.00 0.00 0.00 75 1013.4
20210624212528 89 279 0.0 0.0 0.00 0.00 0.00 77 1013.4
20210624212036 89 149 0.0 0.0 0.00 0.00 0.00 75 1013.4
20210624211530 89 138 0.0 0.0 0.00 0.00 0.00 76 1013.5
20210624211030 89 131 1.0 0.0 0.00 0.00 0.00 75 1013.6
20210624210527 90 138 0.0 0.0 0.00 0.00 0.00 75 1013.6
20210624210038 90 152 0.0 0.0 0.00 0.00 0.00 76 1013.6
20210624205529 90 152 0.0 0.0 0.00 0.00 0.00 75 1013.6
20210624205026 90 153 0.0 0.0 0.00 0.00 0.00 74 1013.5
20210624204539 90 269 0.0 0.0 0.00 0.00 0.00 71 1013.6
20210624204029 90 210 1.0 0.0 0.00 0.00 0.00 73 1013.7
20210624203525 90 135 0.0 0.0 0.00 0.00 0.00 73 1013.7
20210624203041 90 179 0.0 0.0 0.00 0.00 0.00 77 1013.5
20210624202538 89 180 0.0 0.0 0.00 0.00 0.00 78 1013.6
20210624202026 88 221 0.0 0.0 0.00 0.00 0.00 79 1013.7
20210624201534 88 165 0.0 0.0 0.00 0.00 0.00 80 1013.7
20210624201023 87 165 0.0 0.0 0.00 0.00 0.00 79 1013.9
20210624200531 87 165 0.0 0.0 0.00 0.00 0.00 81 1014.0
20210624200031 87 165 0.0 0.0 0.00 0.00 0.00 78 1014.0
20210624195521 88 176 0.0 0.0 0.00 0.00 0.00 77 1014.0
20210624195023 88 168 0.0 0.0 0.00 0.00 0.00 77 1014.1
20210624194546 88 140 0.0 0.0 0.00 0.00 0.00 75 1014.2
20210624194022 89 140 0.0 0.0 0.00 0.00 0.00 74 1014.2
20210624193522 89 128 0.0 0.0 0.00 0.00 0.00 73 1014.1
20210624193131 90 129 1.0 0.0 0.00 0.00 0.00 71 1014.2
20210624192529 90 129 1.0 0.0 0.00 0.00 0.00 72 1014.3
20210624192022 91 143 1.0 0.0 0.00 0.00 0.00 70 1014.1
20210624191534 91 164 1.0 0.0 0.00 0.00 0.00 69 1014.1
20210624191026 92 137 1.0 0.0 0.00 0.00 0.00 70 1014.3
20210624190519 92 159 1.0 0.0 0.00 0.00 0.00 71 1014.2
20210624190027 91 191 1.0 0.0 0.00 0.00 0.00 71 1014.2
20210624185517 91 148 1.0 0.0 0.00 0.00 0.00 71 1014.4
20210624185017 91 165 1.0 0.0 0.00 0.00 0.00 69 1014.4
20210624184527 91 165 0.0 0.0 0.00 0.00 0.00 67 1014.2
20210624184015 91 133 0.0 0.0 0.00 0.00 0.00 68 1014.3
20210624183518 91 177 0.0 0.0 0.00 0.00 0.00 70 1014.4
20210624183015 91 91 1.0 0.0 0.00 0.00 0.00 70 1014.5
20210624182513 91 57 1.0 0.0 0.00 0.00 0.00 67 1014.7
20210624182013 91 129 0.0 0.0 0.00 0.00 0.00 69 1014.7
20210624181513 91 189 0.0 0.0 0.00 0.00 0.00 70 1014.5
20210624181017 91 190 0.0 0.0 0.00 0.00 0.00 69 1014.6
20210624180510 90 277 0.0 0.0 0.00 0.00 0.00 73 1014.7
20210624180023 90 135 0.0 0.0 0.00 0.00 0.00 73 1015.0
20210624175510 90 135 0.0 0.0 0.00 0.00 0.00 71 1015.0
20210624175014 91 294 0.0 0.0 0.00 0.00 0.00 73 1015.1
20210624174508 90 308 0.0 0.0 0.00 0.00 0.00 74 1015.1
20210624174005 90 154 0.0 0.0 0.00 0.00 0.00 75 1015.1
20210624173512 89 265 0.0 0.0 0.00 0.00 0.00 74 1015.2
20210624173007 89 217 0.0 0.0 0.00 0.00 0.00 74 1015.3
20210624172504 89 126 0.0 0.0 0.00 0.00 0.00 75 1015.4
20210624172014 89 124 1.0 0.0 0.00 0.00 0.00 74 1015.3
20210624171506 90 308 1.0 0.0 0.00 0.00 0.00 74 1015.4
20210624171003 90 102 0.0 0.0 0.00 0.00 0.00 73 1015.4
20210624170503 90 264 0.0 0.0 0.00 0.00 0.00 72 1015.4
20210624170002 89 296 1.0 0.0 0.00 0.00 0.00 74 1015.4
20210624165559 89 146 1.0 0.0 0.00 0.00 0.00 76 1015.4
20210624165109 89 260 0.0 0.0 0.00 0.00 0.00 76 1015.5
20210624164655 88 137 0.0 0.0 0.00 0.00 0.00 76 1015.5
20210624164103 88 150 0.0 0.0 0.00 0.00 0.00 77 1015.5
20210624163556 88 121 0.0 0.0 0.00 0.00 0.00 77 1015.5
20210624163127 88 235 1.0 0.0 0.00 0.00 0.00 77 1015.5
20210624162555 88 319 0.0 0.0 0.00 0.00 0.00 80 1015.7
20210624162056 88 208 0.0 0.0 0.00 0.00 0.00 78 1015.7
20210624161638 87 242 0.0 0.0 0.00 0.00 0.00 78 1015.8
20210624161054 87 53 1.0 0.0 0.00 0.00 0.00 79 1015.8
20210624160556 87 162 1.0 0.0 0.00 0.00 0.00 80 1015.8
20210624160123 86 266 1.0 0.0 0.00 0.00 0.00 79 1015.8
20210624155550 86 242 1.0 0.0 0.00 0.00 0.00 82 1016.0
20210624155058 86 144 1.0 0.0 0.00 0.00 0.00 83 1016.0
20210624154628 85 71 0.0 0.0 0.00 0.00 0.00 82 1015.9
20210624154105 85 306 0.0 0.0 0.00 0.00 0.00 85 1016.0
20210624153600 85 246 0.0 0.0 0.00 0.00 0.00 86 1015.9
20210624153117 85 246 0.0 0.0 0.00 0.00 0.00 85 1016.0
20210624152545 85 202 0.0 0.0 0.00 0.00 0.00 86 1016.0
20210624152045 85 258 1.0 0.0 0.00 0.00 0.00 86 1016.0
20210624151604 84 167 0.0 0.0 0.00 0.00 0.00 87 1015.9
20210624151115 84 240 0.0 0.0 0.00 0.00 0.00 86 1016.0
20210624150604 84 114 0.0 0.0 0.00 0.00 0.00 87 1016.0
20210624150048 84 81 0.0 0.0 0.00 0.00 0.00 88 1016.1
20210624145555 84 251 0.0 0.0 0.00 0.00 0.00 87 1016.1
20210624145040 83 279 0.0 0.0 0.00 0.00 0.00 90 1016.2
20210624144556 83 285 0.0 0.0 0.00 0.00 0.00 90 1016.3
20210624144041 83 225 0.0 0.0 0.00 0.00 0.00 90 1016.3
20210624143542 83 281 0.0 0.0 0.00 0.00 0.00 90 1016.2
20210624143054 83 281 0.0 0.0 0.00 0.00 0.00 89 1016.2
20210624142535 83 278 0.0 0.0 0.00 0.00 0.00 89 1016.2
20210624142034 82 245 0.0 0.0 0.00 0.00 0.00 90 1016.1
20210624141601 82 179 0.0 0.0 0.00 0.00 0.00 91 1016.1
20210624141032 82 176 0.0 0.0 0.00 0.00 0.00 92 1016.1
20210624140534 81 215 0.0 0.0 0.00 0.00 0.00 93 1016.0
20210624140053 81 181 0.0 0.0 0.00 0.00 0.00 94 1016.0
20210624135529 81 181 0.0 0.0 0.00 0.00 0.00 94 1016.0
20210624135028 81 179 0.0 0.0 0.00 0.00 0.00 95 1015.8
20210624134549 80 179 0.0 0.0 0.00 0.00 0.00 95 1015.8
20210624134028 80 179 0.0 0.0 0.00 0.00 0.00 96 1015.7
20210624133527 80 171 0.0 0.0 0.00 0.00 0.00 95 1015.8
20210624133052 80 171 0.0 0.0 0.00 0.00 0.00 96 1015.9
20210624132536 79 171 0.0 0.0 0.00 0.00 0.00 96 1015.9
20210624132025 79 171 0.0 0.0 0.00 0.00 0.00 96 1015.9
20210624131535 79 171 0.0 0.0 0.00 0.00 0.00 96 1015.9
20210624131024 79 171 0.0 0.0 0.00 0.00 0.00 96 1015.9
20210624130523 79 171 0.0 0.0 0.00 0.00 0.00 97 1015.8
20210624130049 79 171 0.0 0.0 0.00 0.00 0.00 97 1015.8
20210624125529 78 171 0.0 0.0 0.00 0.00 0.00 97 1015.8
20210624125031 78 171 0.0 0.0 0.00 0.00 0.00 97 1015.8
20210624124538 78 171 0.0 0.0 0.00 0.00 0.00 97 1015.7
20210624124023 78 171 0.0 0.0 0.00 0.00 0.00 97 1015.7
20210624123527 78 171 0.0 0.0 0.00 0.00 0.00 97 1015.7
20210624123044 78 171 0.0 0.0 0.00 0.00 0.00 97 1015.6
20210624122530 78 171 0.0 0.0 0.00 0.00 0.00 97 1015.6
20210624122022 78 171 0.0 0.0 0.00 0.00 0.00 97 1015.6
20210624121547 77 171 0.0 0.0 0.00 0.00 0.00 97 1015.6
20210624121030 77 171 0.0 0.0 0.00 0.00 0.00 97 1015.5
20210624120519 77 171 0.0 0.0 0.00 0.00 0.00 97 1015.5
20210624120023 77 171 0.0 0.0 0.00 0.00 0.00 97 1015.5
20210624115517 77 171 0.0 0.0 0.00 0.00 0.00 97 1015.5
20210624115024 77 171 0.0 0.0 0.00 0.00 0.00 97 1015.4
20210624114525 77 171 0.0 0.0 0.00 0.00 0.00 96 1015.5
20210624114016 77 171 0.0 0.0 0.00 0.00 0.00 96 1015.4
20210624113516 77 171 0.0 0.0 0.00 0.00 0.00 96 1015.4
20210624113029 77 171 0.0 0.0 0.00 0.00 0.00 96 1015.4
20210624112521 77 171 0.0 0.0 0.00 0.00 0.00 96 1015.5
20210624112024 77 171 0.0 0.0 0.00 0.00 0.00 96 1015.5
20210624111613 77 171 0.0 0.0 0.00 0.00 0.00 96 1015.5
20210624111018 77 171 0.0 0.0 0.00 0.00 0.00 96 1015.5
20210624110520 77 171 0.0 0.0 0.00 0.00 0.00 96 1015.4
20210624110028 77 171 0.0 0.0 0.00 0.00 0.00 96 1015.5
20210624105514 77 171 0.0 0.0 0.00 0.00 0.00 96 1015.5
20210624105018 77 171 0.0 0.0 0.00 0.00 0.00 96 1015.5
20210624104521 77 171 0.0 0.0 0.00 0.00 0.00 96 1015.4
20210624104022 77 171 0.0 0.0 0.00 0.00 0.00 95 1015.4
20210624103514 77 171 0.0 0.0 0.00 0.00 0.00 95 1015.4
20210624103022 77 171 0.0 0.0 0.00 0.00 0.00 96 1015.4
20210624102513 77 171 0.0 0.0 0.00 0.00 0.00 96 1015.4
20210624102017 77 171 0.0 0.0 0.00 0.00 0.00 95 1015.4
20210624101548 77 171 0.0 0.0 0.00 0.00 0.00 95 1015.4
20210624101016 77 171 0.0 0.0 0.00 0.00 0.00 95 1015.3
20210624100513 77 171 0.0 0.0 0.00 0.00 0.00 95 1015.3
20210624100021 77 171 0.0 0.0 0.00 0.00 0.00 95 1015.3
20210624095518 77 171 0.0 0.0 0.00 0.00 0.00 95 1015.4
20210624095017 78 171 0.0 0.0 0.00 0.00 0.00 95 1015.4
20210624094531 78 171 0.0 0.0 0.00 0.00 0.00 95 1015.4
20210624094017 78 171 0.0 0.0 0.00 0.00 0.00 95 1015.3
20210624093512 78 171 0.0 0.0 0.00 0.00 0.00 95 1015.3
20210624093021 78 171 0.0 0.0 0.00 0.00 0.00 95 1015.3
20210624092511 78 171 0.0 0.0 0.00 0.00 0.00 95 1015.3
20210624092044 78 171 0.0 0.0 0.00 0.00 0.00 95 1015.3
20210624091512 78 171 0.0 0.0 0.00 0.00 0.00 95 1015.3
20210624091011 78 171 0.0 0.0 0.00 0.00 0.00 96 1015.3
20210624090528 78 171 0.0 0.0 0.00 0.00 0.00 95 1015.2
20210624090041 78 171 0.0 0.0 0.00 0.00 0.00 95 1015.2
20210624085514 78 171 0.0 0.0 0.00 0.00 0.00 95 1015.2
20210624085010 78 171 0.0 0.0 0.00 0.00 0.00 95 1015.3
20210624084514 78 171 0.0 0.0 0.00 0.00 0.00 95 1015.1
20210624084014 77 171 0.0 0.0 0.00 0.00 0.00 95 1015.1
20210624083510 78 171 0.0 0.0 0.00 0.00 0.00 95 1015.2
20210624083028 78 171 0.0 0.0 0.00 0.00 0.00 95 1015.2
20210624082524 78 171 0.0 0.0 0.00 0.00 0.00 94 1015.1
20210624082008 78 171 0.0 0.0 0.00 0.00 0.00 94 1015.1
20210624081520 78 171 0.0 0.0 0.00 0.00 0.00 94 1015.1
20210624081018 78 171 0.0 0.0 0.00 0.00 0.00 94 1015.1
20210624080507 78 171 0.0 0.0 0.00 0.00 0.00 94 1015.1
20210624080009 78 171 0.0 0.0 0.00 0.00 0.00 94 1015.1
20210624075506 78 171 0.0 0.0 0.00 0.00 0.00 94 1015.2
20210624075007 78 171 0.0 0.0 0.00 0.00 0.00 94 1015.1
20210624074531 78 171 0.0 0.0 0.00 0.00 0.00 94 1015.1
20210624074006 78 171 0.0 0.0 0.00 0.00 0.00 94 1015.2
20210624073506 78 171 0.0 0.0 0.00 0.00 0.00 94 1015.2
20210624073006 78 171 0.0 0.0 0.00 0.00 0.00 94 1015.2
20210624072505 78 171 0.0 0.0 0.00 0.00 0.00 93 1015.3
20210624072004 78 171 0.0 0.0 0.00 0.00 0.00 93 1015.4
20210624071504 78 171 0.0 0.0 0.00 0.00 0.00 93 1015.4
20210624071003 78 171 0.0 0.0 0.00 0.00 0.00 93 1015.4
20210624070505 78 171 0.0 0.0 0.00 0.00 0.00 93 1015.4
20210624070014 79 171 0.0 0.0 0.00 0.00 0.00 92 1015.4
20210624065501 79 171 0.0 0.0 0.00 0.00 0.00 92 1015.4
20210624065005 79 171 0.0 0.0 0.00 0.00 0.00 92 1015.4
20210624064502 79 171 0.0 0.0 0.00 0.00 0.00 92 1015.5
20210624064105 79 171 0.0 0.0 0.00 0.00 0.00 92 1015.5
20210624063610 79 171 0.0 0.0 0.00 0.00 0.00 91 1015.5
20210624063244 79 171 0.0 0.0 0.00 0.00 0.00 91 1015.5
20210624062606 79 171 0.0 0.0 0.00 0.00 0.00 91 1015.4
20210624062109 79 171 0.0 0.0 0.00 0.00 0.00 91 1015.4
20210624061623 79 171 0.0 0.0 0.00 0.00 0.00 90 1015.5
20210624061058 80 171 0.0 0.0 0.00 0.00 0.00 91 1015.4
20210624060619 80 171 0.0 0.0 0.00 0.00 0.00 90 1015.4
20210624060155 80 171 0.0 0.0 0.00 0.00 0.00 90 1015.4
20210624055556 80 171 0.0 0.0 0.00 0.00 0.00 90 1015.3
20210624055056 80 171 0.0 0.0 0.00 0.00 0.00 89 1015.3
20210624054613 80 171 0.0 0.0 0.00 0.00 0.00 89 1015.3
20210624054105 80 171 0.0 0.0 0.00 0.00 0.00 89 1015.3
20210624053555 80 171 0.0 0.0 0.00 0.00 0.00 89 1015.4
20210624053152 80 171 0.0 0.0 0.00 0.00 0.00 89 1015.3
20210624052558 80 171 0.0 0.0 0.00 0.00 0.00 89 1015.3
20210624052053 80 171 0.0 0.0 0.00 0.00 0.00 88 1015.3
20210624051603 81 171 0.0 0.0 0.00 0.00 0.00 88 1015.4
20210624051052 81 171 0.0 0.0 0.00 0.00 0.00 88 1015.4
20210624050602 81 171 0.0 0.0 0.00 0.00 0.00 88 1015.4
20210624050112 81 171 0.0 0.0 0.00 0.00 0.00 88 1015.4
20210624045553 81 171 0.0 0.0 0.00 0.00 0.00 87 1015.4
20210624045050 81 171 0.0 0.0 0.00 0.00 0.00 87 1015.3
20210624044637 81 171 0.0 0.0 0.00 0.00 0.00 87 1015.3
20210624044049 81 171 0.0 0.0 0.00 0.00 0.00 87 1015.3
20210624043550 81 171 0.0 0.0 0.00 0.00 0.00 87 1015.3
20210624043113 81 172 0.0 0.0 0.00 0.00 0.00 87 1015.2
20210624042549 82 172 0.0 0.0 0.00 0.00 0.00 87 1015.1
20210624042049 82 172 0.0 0.0 0.00 0.00 0.00 87 1015.1
20210624041606 82 172 0.0 0.0 0.00 0.00 0.00 86 1015.0
20210624041049 82 172 0.0 0.0 0.00 0.00 0.00 86 1015.0
20210624040549 82 172 0.0 0.0 0.00 0.00 0.00 86 1014.9
20210624040106 82 172 0.0 0.0 0.00 0.00 0.00 86 1014.9
20210624035548 82 172 0.0 0.0 0.00 0.00 0.00 86 1014.8
20210624035049 82 235 0.0 0.0 0.00 0.00 0.00 86 1014.8
20210624034549 82 175 0.0 0.0 0.00 0.00 0.00 86 1014.8
20210624034058 82 175 0.0 0.0 0.00 0.00 0.00 86 1014.7
20210624033557 82 175 0.0 0.0 0.00 0.00 0.00 85 1014.6